Location: Dantumawoude
(53.3000°N, 6.0167°E)
Time: 16:52:37
(UTC+00:00)

Daily predictions for brighter satellites

Satellite Brightness Start Highest point End
(mag) Time Altitude Azimuth Time Altitude Azimuth Time Altitude Azimuth
SL-16 R/B 3.3 17:11:14 10° NNW 17:15:59 26° NE 17:20:42 10° E
USA 234 4.0 17:09:57 10° SE 17:16:24 59° SW 17:22:53 10° WNW
Cosmos 1315 Rocket 2.7 17:14:05 10° NNW 17:17:54 88° ENE 17:21:42 10° SSE
Cosmos 2227 Rocket 3.9 17:17:10 10° ESE 17:19:25 12° E 17:21:41 10° ENE
AQUARIUS 4.2 17:15:41 10° SSE 17:20:06 84° WSW 17:24:33 10° NNW
Cosmos 1674 Rocket 3.8 17:16:38 10° SSE 17:20:51 48° E 17:25:07 10° NNE
Spot 4 Rocket 4.3 17:16:17 10° SE 17:21:07 44° ENE 17:25:57 10° N
Cosmos 2016 Rocket 4.1 17:15:23 10° N 17:21:40 89° WSW 17:27:59 10° S
Cosmos 2242 Rocket 3.6 17:18:46 10° S 17:23:09 88° WNW 17:27:33 10° N
ARIANE 5 R/B 2.9 17:21:03 10° S 17:26:09 73° WSW 17:31:13 10° NNW
SAR-Lupe-4 3.5 17:23:15 10° SSE 17:26:47 66° ENE 17:30:21 10° N
NOSS 3-3 (A) 4.0 17:22:31 10° SSW 17:27:33 49° SE 17:33:34 10° NE
CARTOSAT-1 4.0 17:25:53 10° SE 17:29:44 36° ENE 17:33:37 10° N
Cosmos 2285 Rocket 4.0 17:29:14 10° NNW 17:35:43 77° ENE 17:42:07 10° SSE
Cosmos 2233 Rocket 4.1 17:29:44 10° N 17:36:03 88° E 17:42:22 10° S
CZ-4 R/B 4.4 17:34:21 10° SSE 17:38:19 87° WSW 17:42:20 10° NNW
NOSS 0 Rocket 4.3 17:32:06 10° NW 17:38:21 73° WSW 17:44:33 10° SSE
USA 290 2.4 17:35:31 10° SSW 17:38:41 71° WNW 17:41:54 10° NNE
ARIANE 6 FM1 Upper Stage 3.4 17:38:22 10° NW 17:42:02 34° NNE 17:45:04 14° E
CZ-4 R/B 3.1 17:42:56 12° ENE 17:43:22 12° NE 17:44:52 10° NNE
NOSS 3-4 (A) 3.7 17:37:57 10° NW 17:44:25 79° NE 17:52:07 10° SE
NOSS 3-4 (C) 3.8 17:38:13 10° NW 17:44:42 79° NE 17:52:25 10° SE
Cosmos 2150 Rocket 4.2 17:41:31 10° NNW 17:46:31 46° NE 17:51:27 10° SE
Cosmos 2151 Rocket 4.2 17:44:08 10° NNW 17:48:36 63° W 17:53:03 10° S
Cosmos 2298 Rocket 4.3 17:44:33 10° NNW 17:49:41 47° NE 17:54:47 10° SE
Terra 3.7 17:52:12 12° ENE 17:52:47 12° NE 17:54:33 10° NNE
Meteor 1-11 4.3 17:47:32 10° SSW 17:53:12 86° WNW 17:59:00 10° NNE
Radarsat Rocket 4.0 17:50:06 10° SSE 17:56:00 82° ENE 18:02:30 10° NNW
Cosmos 1455 Rocket 3.0 17:52:02 10° N 17:56:18 58° ENE 18:00:32 10° SSE
Cosmos 1607 3.9 17:50:29 10° SW 17:56:38 89° SE 18:02:53 10° NE
Cosmos 2082 Rocket 4.4 17:53:36 10° WNW 17:57:05 16° NNW 18:00:35 10° NNE
CSL-04 Rocket 4.5 17:54:05 10° ESE 17:58:33 29° ENE 18:03:02 10° N
Cosmos 2228 3.4 17:55:16 10° N 17:59:11 37° ENE 18:03:05 10° SE
RESURS DK-1 4.2 17:56:56 10° N 17:59:16 15° NNE 18:00:24 14° NE
COSMO-SKYMED 1 2.6 17:55:31 10° NNE 17:59:33 51° E 18:03:33 10° S
Cosmos 44 Rocket 4.3 17:56:09 10° S 18:00:19 28° ESE 18:03:10 17° ENE
YAOGAN 1 2.7 17:56:10 10° S 18:00:25 78° WSW 18:04:43 10° NNW
Cosmos 1975 Rocket 3.9 17:57:13 10° SE 18:00:51 27° E 18:04:30 10° NNE
Cosmos 1782 3.5 17:57:54 10° N 18:01:02 27° ENE 18:03:12 15° ESE
PSLV R/B 3.3 17:57:06 10° SSE 18:01:11 72° ENE 18:05:17 10° NNW
ATLAS 2AS CENTAUR R/B 3.6 17:55:24 10° W 18:01:49 39° NNW 18:07:56 11° NE
Cosmos 2297 Rocket 2.4 17:57:37 10° S 18:03:05 52° ESE 18:08:35 10° NE
Cosmos 1943 4.4 17:59:13 10° NNW 18:03:55 25° NE 18:06:44 18° ENE
Lacrosse 5 rocket 1.3 18:00:36 10° W 18:04:05 58° NNW 18:06:24 20° ENE
DNEPR-1 R/B 3.9 17:59:39 10° NW 18:04:20 73° NE 18:09:55 10° SE
Cosmos 2061 Rocket 4.4 18:00:06 10° NNW 18:06:27 69° W 18:12:41 10° S
Aureole 3 Rocket 2.7 18:02:38 10° NNW 18:06:50 83° WSW 18:10:06 10° S
IRAS Rocket 4.3 18:03:22 10° SE 18:08:53 60° ENE 18:14:25 10° NNW
CZ-2D R/B 3.7 18:06:20 10° S 18:10:15 70° WSW 18:14:18 10° NNW
SL-16 R/B 4.2 18:06:09 10° N 18:11:35 33° NW 18:17:01 10° WSW
Okean 1 Rocket 3.8 18:07:17 10° NNW 18:11:36 56° W 18:15:52 10° S
CZ-4C R/B 1.9 18:09:44 10° SW 18:14:11 83° NW 18:19:25 13° NE
Cosmos 1464 Rocket 4.0 18:09:44 10° N 18:16:03 59° ENE 18:22:16 10° SSE
Okean 2 Rocket 4.4 18:12:38 10° NNW 18:16:49 44° W 18:20:57 10° SSW
USA 267 3.3 18:15:08 17° ENE 18:20:29 87° NNW 18:27:03 10° WSW
Cosmos 2344 4.3 18:14:22 10° S 18:20:41 28° ESE 18:23:43 21° ENE
Meteor 2-17 Rocket 4.5 18:15:03 10° SSE 18:20:54 54° E 18:26:47 10° NNE
Cosmos 2221 Rocket 3.8 18:16:37 10° SSW 18:21:06 75° WNW 18:25:38 10° N
ERS-1 Rocket 4.1 18:22:17 22° ENE 18:22:54 23° ENE 18:26:45 10° N
SJ-6B 2.4 18:21:40 10° SSE 18:25:04 64° ENE 18:28:30 10° N
CZ-4B R/B 4.1 18:28:24 29° ESE 18:29:54 42° ENE 18:33:35 10° N
Cosmos 1867 4.4 18:25:49 10° WSW 18:31:03 47° NW 18:35:48 13° NE
Cosmos 2263 Rocket 3.1 18:27:04 10° SSE 18:31:40 26° ESE 18:31:44 26° ESE
Cosmos 1025 Rocket 4.1 18:27:34 10° SSW 18:31:44 47° WNW 18:35:58 10° N
Cosmos 2237 Rocket 3.1 18:29:16 10° NW 18:34:45 50° WSW 18:40:12 10° S
ATLAS CENTAUR R/B 2.7 18:34:16 10° NNW 18:35:32 15° N 18:35:32 15° N
Meteor 1-31 Rocket 2.8 18:36:36 43° ENE 18:36:36 43° ENE 18:39:47 10° N
ADEOS 4.2 18:43:01 33° E 18:43:50 35° ENE 18:48:31 10° N
Cosmos 1570 Rocket 3.9 18:39:05 10° SSW 18:44:22 86° ESE 18:49:39 10° NNE
Resurs 01 Rocket 2.1 18:40:09 10° S 18:44:30 61° W 18:48:53 10° NNW
SPOT 5 2.9 18:45:52 24° SE 18:48:46 59° ENE 18:53:49 10° N
NOSS 3-3 (C) 4.0 18:45:41 10° WSW 18:51:08 73° NW 18:55:58 19° NE
DMSP B5D1-3 4.4 18:46:45 10° NNE 18:51:54 89° ESE 18:57:01 10° SSW
SL-16 R/B 2.1 18:55:08 10° NNW 19:00:50 89° ENE 19:03:58 28° SSE
Cosmos 2227 Rocket 2.1 18:56:46 10° SSW 19:02:20 64° ESE 19:05:16 28° NE
Cosmos 1346 Rocket 4.4 19:01:39 10° S 19:02:49 20° S 19:02:49 20° S
Cosmos 773 Rocket 4.0 18:59:58 10° SSW 19:05:16 85° WNW 19:10:34 10° NNE
Cosmos 2208 Rocket 3.9 19:00:13 10° SSW 19:05:29 89° WNW 19:10:43 11° NNE
Tsikada Rocket 4.1 19:03:15 10° SSE 19:09:06 49° E 19:15:02 10° NNE
CZ-4 R/B 2.0 19:17:56 43° N 19:17:56 43° N 19:20:34 10° NNW
Okean O Rocket 3.5 19:20:31 19° NNE 19:20:31 19° NNE 19:21:58 10° N
NOSS 3-3 (A) 4.5 19:12:56 10° WSW 19:18:23 54° NNW 19:22:15 24° NE
MetOp-B 4.1 19:18:21 56° ENE 19:18:30 57° ENE 19:23:45 10° N
ARIANE 6 FM1 Upper Stage 2.8 19:17:21 10° NW 19:21:05 64° WSW 19:21:05 64° WSW
CZ-4B R/B 3.0 19:26:09 66° E 19:26:18 67° ENE 19:31:34 10° NNW
Cosmos 1544 Rocket 3.9 19:24:37 10° NNW 19:28:54 61° W 19:30:03 44° SSW
Terra 2.6 19:30:49 40° NNE 19:30:49 40° NNE 19:34:01 10° N
CZ-4B DEB 4.1 19:29:06 42° SSE 19:31:05 84° WSW 19:36:35 10° NNW
Cosmos 2034 Rocket 4.3 19:27:43 10° NNW 19:33:50 65° W 19:39:57 10° S
CSL-04 Debris 4.4 19:30:41 25° S 19:33:55 69° WSW 19:39:21 10° NNW
RESURS DK-1 3.8 19:33:32 10° NNW 19:35:40 29° NNW 19:35:40 29° NNW
Cosmos 1975 Rocket 4.3 19:34:20 10° SW 19:38:26 40° WNW 19:42:31 10° N
CSL-04 Rocket 4.1 19:35:11 21° S 19:38:36 59° WSW 19:43:50 10° NNW
Lacrosse 5 rocket 2.9 19:37:49 10° WNW 19:39:50 29° NW 19:39:50 29° NW
Cosmos 1634 Rocket 3.9 19:34:56 10° N 19:41:19 87° E 19:43:02 52° SSE
Cosmos 44 Rocket 3.5 19:36:24 10° SW 19:41:22 68° NW 19:41:48 65° N
MOS 1 4.2 19:41:21 70° SSE 19:42:05 89° ENE 19:47:49 10° NNW
Cosmos 2082 Rocket 4.4 19:40:54 10° NNW 19:43:41 14° N 19:44:52 13° NNE
Cosmos 2297 Rocket 3.4 19:42:00 10° WSW 19:47:19 39° NW 19:51:39 15° NNE
Cosmos 1943 3.1 19:43:02 10° NNW 19:48:32 80° NNE 19:48:32 80° NNE
ATLAS 2AS CENTAUR R/B 3.5 19:48:01 10° NW 19:54:18 37° N 19:55:21 35° NNE
BREEZE-M DEB (TANK) 4.1 19:40:43 10° W 19:55:53 51° S 19:56:30 49° S
ERS-1 Rocket 3.5 20:02:08 55° NW 20:02:08 55° NW 20:06:11 10° NNW
Cosmos 972 Rocket 4.4 19:58:13 10° NNW 20:02:46 58° W 20:02:46 58° W
CZ-4C R/B 3.4 19:58:34 10° W 20:03:13 35° NNW 20:04:22 33° N
Cosmos 1603 4.4 19:57:44 10° NNW 20:01:52 45° N 20:01:52 45° N
USA 267 3.4 20:02:29 59° NE 20:03:21 66° N 20:09:50 10° W
Cosmos 2279 Rocket 3.9 19:57:30 10° N 20:03:20 80° N 20:03:20 80° N
Cosmos 2263 Rocket 2.9 20:09:26 10° SW 20:13:31 47° WSW 20:13:31 47° WSW
Cosmos 1833 Rocket 4.4 20:29:07 10° NNW 20:31:47 24° N 20:31:47 24° N
Cosmos 2344 3.4 20:26:40 10° SW 20:33:48 78° W 20:33:48 78° W
SL-16 R/B 4.3 20:40:17 10° NW 20:44:12 20° W 20:45:53 17° WSW
Cosmos 2227 Rocket 3.6 20:41:38 10° WSW 20:46:46 34° NW 20:47:09 34° NNW
Okean O Rocket 4.5 20:57:45 13° NNW 20:57:45 13° NNW 20:58:20 10° NNW
Terra 4.4 21:09:26 17° NW 21:09:26 17° NW 21:11:02 10° NW
ATLAS 2AS CENTAUR R/B 4.2 21:39:28 10° NW 21:42:46 30° NW 21:42:46 30° NW
